H-3 R/B, 62877

Orbit data source: Space-Track

H-3 R/B, 62877 is space debris in HEO originally from a launch on Sun, 02 Feb 2025 UTC launched from the Tanegashima Space Center (TNSTA). Debris objects in space refer to the collection of defunct objects orbiting the Earth. Examples of debris include non-operational satellites, rocket bodies, and fragments generated from explosions, collisions, or faulty payload assembly.

Loading next visibility...
Identifier
62877, 2025-023B
Orbit
HEO
Country
Flag of JPJP / JPN
Related business
Manufacturer
MHI Tobishima
Mission
Spacecraft
Bus & Motor
H-2A STAGE 2, Unknown motor
Mass
2,500 kg wet, 2,500 kg dry
Launch date (UTC)
2025-02-02 (9 months ago)
Launch vehicle
Unknown
Launch site
Tanegashima Space Center (TNSTA)
Object type
Payload
Rocket body
Debris
Shape & HBR
Cyl, 5.6 m
Radar Cross Section
55.543 m², Large (>1 m²)

Expand to show TLE details & history
Last TLE update: 12 hours ago

TLE from 12 hours ago
0 H-3 R/B
1 62877U 25023B   25297.74418508  .00003395  00000-0  25668-2 0  9993
2 62877  20.9964 198.3821 7213054   3.6853 359.6952  2.33750617  6178
Epoch: 2025-10-24T17:51Z
TLE epoch observation values (Epoch: 2025-10-24T17:51:37.590Z)
Latitude
-0.0004°
Longitude
-102.88619°
Altitude
291.537 km
Speed
10.144 km/s
True Right ascension
13h 13m 37s
True Declination
0° 00' 01"
Sunlit
Object was in daylight at epoch
Visualization orbit readout
Latitude
Unknown
Longitude
Unknown
Altitude
Unknown
Speed
Unknown
Apparent Right ascension
Unknown
Apparent Declination
Unknown
Sunlit
N/A
Visualization observer readout
Local Sidereal Time
01:22:30
Azimuth
Unknown
Elevation
Unknown
Doppler factor
Unknown
Orbital elements
Apogee altitude
34,911.305 km
Perigee altitude
306.99 km
Semi-major axis
23,987.284 km
Eccentricity
0.72131
Inclination
20.9964°
RAAN
198.3821°
Arg. of periapsis
3.6853°
True anomaly
357.28284°
Mean anomaly
359.6952°
Eccentric anomaly
358.9065°
Mean motion
0.58421 °/min
Orbital period
616.21 mins
BSTAR
0.0025668
Loading maneuver chart data...
Computing Atmospheric mass density...
Loading historical data...
Loading historical data...
Loading historical data...
Loading historical data...
Loading historical data...
Loading historical data...
Loading historical data...
Other satellites on launch #23 in the year 2025 (2025-02-02 UTC)

Documentation

Showing up to 5 results
|